Probability
0 0 0 0 0 0 0 0 0 0 0 0 0 0 0 0 0 0 0 0 0 0 0 0 0 0 0 0 0 0 0 0 0 0 0 0 0 0 0 0 0 0 0
0 0 0 0 0 0 0 0 0 0 0 0 0 0 0 0 0 0 0 0 0 0 0 0 0 0 0 0 0 0 0 0 0 0 0 0 0 0 0 0 0 0 0
0 0 0 0 0 0 0 0 0 0 0 0 0 0 0 0 0 0 0 0 0 0 0 0 0 0 0 0 0 0 0 0 0 0 0 0 0 0 0 0 0 0 0
0 0 0 0 0 0 0 0 0 0 0 0 0 0 0 0 0 0 0 0 0 0 0 0 0 0 0 0 0 0 0 0 0 0 0 0 0 0 0 0 0 0 0
0 0 0 0 0 0 0 0 0 0 0 0 0 0 0 0 0 0 0 0 0 0 0 0 0 0 0 0 0 0 0 0 0 0 0 0 0 0 0 0 0 0 0
0 0 0 0 0 0 0 0 0 0 0 0 0 0 0 0 0 0 0 0 0 0 0 0 0 0 0 0 0 0 0 0 0 0 0 0 0 0 0 0 0 0 0
0 0 0 0 0 0 0 0 0 0 0 0 0 0 0 0 0 0 0 0 0 0 0 0 0 0 0 0 0 0 0 0 0 0 0 0 0 0 0 0 0 0 0
0 0 0 0 0 0 0 0 0 0 0 0 0 0 0 0 0 0 0 0 0 0 0 0 0 0 0 0 0 0 0 0 0 0 0 0 0 0 0 0 0 0 0
0 0 0 0 0 0 0 0 0 0 0 0 0 0 0 0 0 0 0 0 0 0 0 0 0 0 0 0 0 0 0 0 0 0 0 0 0 0 0 0 0 0 0
0 0 0 0 0 0 0 0 0 0 0 0 0 0 0 0 0 0 0 0 0 0 0 0 0 0 0 0 0 0 0 0 0 0 0 0 0 0 0 0 0 0 0
0 0 0 0 0 0 0 0 0 0 0 0 0 0 0 0 0 0 0 0 0 0 0 0 0 0 0 0 0 0 0 0 0 0 0 0 0 0 0 0 0 0 0
0 0 0 0 0 0 0 0 0 0 0 0 0 0 0 0 0 0 0 0 0 0 0 0 0 0 0 0 0 0 0 0 0 0 0 0 0 0 0 0 0 0 0
0 0 0 0 0 0 0 0 0 0 0 0 0 0 0 0 0 0 0 0 0 0 0 0 0 0 0 0 0 0 0 0 0 0 0 0 0 0 0 0 0 0 0
0 0 0 0 0 0 0 0 0 0 0 0 0 0 0 0 0 0 0 0 0 0 0 0 0 0 0 0 0 0 0 0 0 0 0 0 0 0 0 0 0 0 0
0 0 0 0 0 0 0 0 0 0 0 0 0 0 0 0 0 0 0 0 0 0 0 0 0 0 0 0 0 0 0 0 0 0 0 0 0 0 0 0 0 0 0
0 0 0 0 0 0 0 0 0 0 0 0 0 0 0 0 0 0 0 0 0 0 0 0 0 0 0 0 0 0 0 0 0 0 0 0 0 0 0 0 0 0 0
0 0 0 0 0 0 0 0 0 0 0 0 0 0 0 0 0 0 0 0 0 0 0 0 0 0 0 0 0 0 0 0 0 0 0 0 0 0 0 0 0 0 0
0 0 0 0 0 0 0 0 0 0 0 0 0 0 0 0 0 0 0 0 0 0 0 0 0 0 0 0 0 0 0 0 0 0 0 0 0 0 0 0 0 0 0
0 0 0 0 0 0 0 0 0 0 0 0 0 0 0 0 0 0 0 0 0 0 0 0 0 0 0 0 0 0 0 0 0 0 0 0 0 0 0 0 0 0 0
0 0 0 0 0 0 0 0 0 0 0 0 0 0 0 0 0 0 0 0 0 0 0 0 0 0 0 0 0 0 0 0 0 0 0 0 0 0 0 0 0 0 0
0 0 0 0 0 0 0 0 0 0 0 0 0 0 0 0 0 0 0 0 0 0 0 0 0 0 0 0 0 0 0 0 0 0 0 0 0 0 0 0 0 0 0
0 0 0 0 0 0 0 0 0 0 0 0 0 0 0 0 0 0 0 0 0 0 0 0 0 0 0 0 0 0 0 0 0 0 0 0 0 0 0 0 0 0 0
0 0 0 0 0 0 0 0 0 0 0 0 0 0 0 0 0 0 0 0 0 0 0 0 0 0 0 0 0 0 0 0 0 0 0 0 0 0 0 0 0 0 0
0 0 0 0 0 0 0 0 0 0 0 0 0 0 0 0 0 0 0 0 0 0 0 0 0 0 0 0 0 0 0 0 0 0 0 0 0 0 0 0 0 0 0
0 0 0 0 0 0 0 0 0 0 0 0 0 0 0 0 0 0 0 0 0 0 0 0 0 0 0 0 0 0 0 0 0 0 0 0 0 0 0 0 0 0 0
0 0 0 0 0 0 0 0 0 0 0 0 0 0 0 0 0 0 0 0 0 0 0 0 0 0 0 0 0 0 0 0 0 0 0 0 0 0 0 0 0 0 0
Height
5658 5659 5661 5663 5665 5667 5669 5670 5672 5673 5674 5675 5676 5677 5678 5678 5678 5677 5677 5676 5674 5672 5669 5667 5666 5664 5662 5659 5656 5654 5651 5649 5648 5648 5646 5645 5644 5643 5643 5643 5644 5645 5645
5653 5654 5656 5657 5659 5660 5661 5662 5663 5664 5664 5665 5665 5666 5666 5666 5666 5665 5664 5663 5661 5659 5656 5654 5652 5650 5648 5645 5643 5641 5639 5637 5636 5635 5635 5634 5633 5633 5633 5633 5633 5634 5635
5649 5650 5651 5652 5653 5654 5654 5654 5654 5654 5654 5654 5654 5655 5655 5655 5654 5654 5652 5650 5648 5645 5642 5640 5638 5636 5634 5631 5629 5628 5626 5625 5624 5623 5622 5622 5622 5622 5623 5623 5623 5624 5625
5646 5646 5647 5647 5647 5647 5647 5647 5646 5646 5645 5645 5644 5644 5644 5643 5642 5641 5640 5637 5635 5631 5628 5626 5624 5621 5619 5617 5616 5615 5613 5612 5611 5611 5611 5611 5612 5612 5612 5613 5614 5615 5616
5643 5642 5642 5642 5642 5641 5641 5640 5638 5637 5636 5635 5634 5633 5632 5631 5631 5629 5627 5625 5622 5618 5615 5612 5610 5608 5606 5604 5603 5601 5600 5599 5599 5599 5600 5601 5601 5602 5603 5604 5605 5605 5606
5640 5639 5639 5638 5637 5636 5634 5632 5630 5628 5627 5625 5624 5623 5622 5621 5619 5617 5615 5612 5609 5607 5603 5600 5597 5595 5593 5591 5589 5588 5587 5587 5587 5588 5589 5590 5592 5593 5594 5594 5595 5596 5598
5638 5637 5635 5634 5632 5630 5627 5624 5622 5619 5617 5616 5614 5613 5612 5610 5608 5605 5603 5600 5598 5595 5592 5589 5586 5583 5580 5579 5577 5576 5575 5575 5576 5577 5578 5580 5582 5583 5584 5585 5586 5588 5589
5635 5634 5632 5629 5627 5624 5621 5618 5615 5612 5609 5607 5605 5602 5600 5598 5596 5594 5592 5589 5586 5583 5580 5577 5574 5572 5569 5567 5566 5565 5565 5565 5565 5566 5568 5570 5571 5573 5574 5576 5577 5579 5580
5632 5629 5627 5624 5621 5618 5615 5611 5608 5605 5602 5599 5595 5592 5590 5588 5586 5584 5581 5578 5576 5573 5569 5566 5563 5561 5559 5556 5555 5555 5555 5555 5555 5555 5557 5558 5561 5563 5565 5566 5568 5570 5572
5628 5625 5622 5619 5616 5612 5609 5606 5602 5599 5595 5591 5587 5584 5581 5579 5576 5573 5571 5569 5566 5563 5560 5556 5553 5551 5548 5545 5544 5544 5544 5544 5545 5546 5547 5548 5550 5552 5555 5557 5559 5561 5563
5623 5620 5617 5614 5611 5607 5604 5600 5596 5593 5589 5584 5580 5576 5572 5569 5566 5563 5561 5558 5556 5553 5550 5547 5544 5541 5539 5536 5534 5534 5534 5535 5536 5537 5538 5539 5541 5543 5546 5548 5550 5553 5555
5619 5616 5612 5608 5605 5601 5598 5594 5590 5586 5582 5577 5572 5568 5564 5560 5557 5553 5551 5548 5546 5543 5541 5538 5535 5533 5530 5528 5526 5525 5525 5526 5526 5527 5529 5531 5533 5535 5537 5539 5542 5544 5546
5613 5610 5606 5602 5598 5595 5591 5587 5583 5579 5574 5570 5565 5561 5556 5552 5548 5545 5542 5539 5536 5534 5531 5529 5526 5524 5522 5520 5518 5518 5517 5517 5518 5519 5521 5522 5524 5527 5529 5531 5533 5535 5537
5607 5603 5600 5596 5592 5588 5584 5580 5576 5572 5567 5562 5558 5554 5549 5545 5541 5537 5534 5531 5528 5525 5523 5520 5517 5515 5514 5512 5510 5510 5509 5510 5510 5511 5512 5514 5515 5518 5520 5522 5525 5527 5529
5600 5596 5592 5588 5585 5581 5576 5572 5568 5564 5559 5555 5550 5546 5541 5538 5533 5530 5526 5523 5520 5517 5514 5512 5509 5507 5505 5504 5503 5502 5502 5502 5502 5503 5504 5505 5507 5509 5511 5514 5516 5518 5521
5593 5589 5585 5581 5577 5573 5569 5564 5560 5556 5551 5546 5542 5537 5533 5529 5525 5522 5518 5514 5511 5508 5505 5503 5500 5499 5497 5496 5495 5494 5494 5494 5494 5495 5496 5497 5499 5501 5503 5505 5507 5509 5512
5586 5582 5577 5573 5569 5564 5560 5556 5551 5547 5542 5538 5533 5529 5525 5521 5517 5513 5509 5506 5503 5500 5497 5494 5491 5490 5488 5487 5486 5486 5486 5486 5486 5487 5488 5489 5490 5493 5495 5497 5499 5500 5503
5577 5573 5569 5564 5560 5556 5551 5547 5542 5538 5533 5529 5524 5520 5516 5512 5508 5504 5500 5497 5494 5491 5488 5485 5483 5481 5479 5479 5478 5478 5477 5477 5478 5479 5480 5481 5482 5484 5486 5488 5490 5492 5494
5568 5564 5559 5555 5550 5546 5541 5537 5533 5528 5524 5520 5515 5511 5506 5502 5498 5494 5490 5487 5484 5481 5479 5476 5474 5472 5471 5470 5470 5470 5469 5469 5470 5471 5472 5473 5474 5475 5477 5480 5481 5483 5485
5558 5554 5549 5545 5540 5536 5531 5527 5522 5518 5514 5509 5505 5501 5496 5492 5488 5484 5481 5477 5474 5472 5469 5467 5465 5464 5463 5462 5462 5462 5462 5462 5462 5463 5463 5464 5465 5467 5469 5471 5473 5475 5477
5547 5543 5538 5534 5530 5525 5521 5516 5512 5507 5503 5498 5494 5490 5486 5482 5478 5474 5470 5467 5464 5462 5460 5458 5456 5455 5454 5454 5454 5454 5453 5453 5454 5454 5455 5455 5457 5458 5460 5461 5463 5465 5468
5536 5532 5527 5523 5518 5514 5509 5505 5501 5496 5492 5487 5483 5479 5474 5471 5467 5464 5461 5458 5455 5452 5450 5449 5447 5446 5445 5445 5445 5445 5445 5445 5445 5445 5446 5447 5448 5449 5450 5452 5454 5456 5458
5524 5520 5516 5511 5507 5502 5498 5493 5489 5484 5480 5476 5471 5467 5463 5460 5457 5454 5451 5448 5445 5443 5441 5439 5438 5437 5436 5436 5435 5435 5435 5435 5436 5436 5437 5438 5438 5440 5441 5443 5445 5447 5448
5512 5508 5504 5499 5495 5490 5486 5481 5476 5472 5468 5464 5460 5456 5452 5449 5446 5443 5440 5437 5435 5433 5431 5430 5429 5428 5427 5427 5426 5426 5426 5426 5426 5427 5428 5428 5429 5430 5432 5433 5435 5437 5439
5500 5496 5491 5487 5482 5478 5473 5469 5464 5460 5456 5452 5448 5445 5441 5438 5435 5432 5429 5427 5425 5423 5422 5420 5420 5419 5418 5417 5417 5416 5416 5417 5417 5418 5419 5419 5420 5421 5422 5424 5425 5427 5429
5487 5483 5478 5474 5469 5465 5460 5456 5452 5448 5444 5440 5437 5433 5430 5427 5424 5421 5419 5417 5415 5413 5412 5411 5410 5409 5408 5408 5407 5407 5407 5408 5408 5409 5409 5410 5411 5412 5413 5415 5416 5418 5420
Wind_Speed
18 20 22 24 24 25 28 30 31 34 37 38 39 40 41 41 41 43 44 45 45 45 46 47 48 49 50 50 50 49 48 48 48 47 46 44 42 42 41 41 41 40 39
16 18 19 22 24 25 27 29 30 33 36 37 38 39 40 41 42 42 42 44 46 46 47 48 50 50 50 51 49 48 48 48 48 46 45 43 41 40 39 40 40 39 39
13 16 18 20 22 24 27 28 30 31 33 35 36 38 39 40 41 43 44 45 46 47 48 49 50 50 51 48 47 48 47 47 46 45 43 42 41 40 39 39 38 38 37
12 14 17 20 22 24 25 27 28 30 32 33 34 36 38 40 41 43 45 46 47 47 47 48 48 48 46 45 45 46 45 44 43 42 41 41 40 38 38 36 36 35 35
12 14 15 18 20 22 24 26 27 29 30 31 32 34 36 39 40 42 44 45 44 44 45 46 47 46 46 45 45 45 43 42 42 41 41 40 39 38 37 35 35 34 34
9 12 14 16 18 20 23 26 28 29 29 30 31 33 36 38 39 40 42 42 42 41 41 42 44 45 45 45 45 44 43 43 42 42 41 39 38 38 36 34 34 33 34
12 13 15 17 19 22 24 26 27 28 29 31 33 35 36 37 37 38 39 40 40 40 41 41 40 41 42 43 41 40 40 40 41 41 40 38 37 35 35 34 33 32 32
12 15 16 18 20 22 24 24 25 27 28 30 32 34 35 35 35 36 37 38 38 38 39 39 39 39 40 40 40 39 38 37 37 38 37 36 36 35 33 32 32 32 31
14 16 18 19 21 22 23 23 24 25 27 29 30 32 33 33 34 35 35 35 35 36 36 37 37 38 39 39 39 39 37 36 35 33 33 33 34 33 33 33 32 31 30
16 17 19 21 22 23 23 24 25 26 28 29 30 30 31 32 32 33 34 34 34 34 35 35 36 36 37 37 37 36 36 35 35 34 33 32 32 32 31 31 30 30 30
19 20 21 22 24 24 24 25 26 27 29 30 30 31 32 33 33 33 34 34 34 33 33 34 34 33 34 34 34 34 34 33 33 33 33 32 31 31 31 30 30 30 30
22 23 24 25 26 26 27 27 27 28 30 30 30 31 32 34 34 33 34 35 35 34 33 33 33 31 31 31 31 30 30 30 30 31 31 31 30 30 31 31 32 33 32
24 25 27 27 27 28 29 29 30 31 32 31 31 32 32 34 34 34 33 34 35 35 34 33 32 31 30 30 29 29 29 29 30 30 30 30 30 30 30 30 31 32 31
27 29 29 29 29 30 31 31 32 33 33 33 33 33 34 34 34 34 34 34 34 35 34 33 31 31 30 29 28 28 29 29 28 28 29 29 30 30 29 29 30 30 30
29 30 31 32 31 32 33 33 33 34 34 35 35 35 34 33 33 34 35 34 34 34 33 32 31 31 31 30 29 29 28 27 27 27 28 28 28 28 28 28 28 29 29
31 32 33 34 34 34 35 35 35 36 36 36 36 35 35 34 34 35 35 35 34 33 33 32 31 30 30 30 29 28 28 27 27 27 27 27 27 27 27 27 27 28 28
33 34 35 35 36 36 37 37 37 37 37 36 36 36 36 36 37 37 36 35 35 34 33 31 31 30 29 28 27 27 26 27 27 27 27 27 27 27 27 27 27 27 27
35 36 37 37 37 37 37 38 38 39 38 38 37 37 37 37 38 39 38 36 35 33 32 31 30 28 27 26 26 26 27 27 27 27 27 27 27 27 27 27 26 26 27
37 38 39 39 38 38 39 39 39 39 39 39 39 39 39 39 38 38 38 36 35 34 33 32 30 28 26 26 26 26 26 26 26 26 26 26 26 27 27 27 26 26 26
39 40 41 40 40 40 40 40 40 40 41 41 41 40 40 39 39 38 37 36 35 34 32 31 30 28 27 26 26 26 25 26 25 25 25 26 26 27 27 27 27 26 27
41 41 42 42 42 41 41 41 41 42 42 42 42 41 40 40 39 38 36 35 34 33 31 31 30 28 27 26 26 26 26 26 26 26 26 26 26 27 27 27 27 27 27
42 43 44 44 43 43 42 42 42 42 42 42 41 41 40 39 38 37 36 35 34 33 31 30 28 28 28 27 27 27 26 26 25 25 25 26 26 27 27 27 28 28 28
43 44 44 44 44 44 44 44 43 43 42 42 41 40 39 38 37 36 35 34 33 33 32 30 28 28 28 28 27 27 28 27 26 26 26 26 27 27 27 28 28 28 28
45 46 45 45 45 45 45 45 44 43 42 41 40 39 38 38 37 36 35 34 33 32 31 30 28 28 28 28 28 27 27 27 27 26 26 27 27 27 27 28 28 29 29
46 47 47 46 46 45 45 45 44 43 42 41 40 39 38 37 36 35 34 33 33 32 30 29 28 28 27 27 27 27 26 26 26 26 26 26 26 26 27 27 28 29 29
47 47 47 47 46 46 45 44 43 42 41 40 39 38 37 36 36 34 33 32 31 30 30 29 28 28 27 27 27 27 27 26 25 25 25 25 25 26 26 27 28 28 29
Wind_Direction
250 248 247 249 252 255 258 259 261 262 262 263 264 265 266 268 270 271 273 274 275 277 277 276 276 277 278 279 280 280 280 280 281 280 280 280 278 275 274 272 271 270 269
252 253 254 256 258 260 261 264 265 265 265 266 267 267 269 271 272 274 274 275 275 276 276 275 275 277 278 278 278 277 278 278 279 279 278 277 277 274 272 272 270 268 268
261 259 260 263 264 266 268 269 270 270 272 272 271 270 272 273 273 275 276 277 278 277 275 273 275 276 277 277 277 276 276 276 277 277 275 274 274 274 271 272 270 267 265
276 274 272 272 274 274 275 275 272 274 278 277 274 273 274 275 276 278 279 280 281 280 278 276 277 278 278 277 276 275 275 275 273 273 273 271 270 271 271 271 268 265 264
284 285 283 282 282 281 282 283 280 281 280 278 276 277 279 279 280 280 280 281 284 284 282 280 279 280 279 279 278 276 274 273 272 271 269 269 267 268 269 267 267 267 266
300 296 288 288 291 291 291 290 289 286 282 279 278 280 281 281 282 283 284 284 284 284 283 283 283 282 282 282 281 277 275 273 271 267 266 266 265 266 268 267 268 268 267
309 304 299 298 297 298 298 295 293 291 288 285 282 281 281 282 283 284 285 286 285 284 284 285 285 284 283 283 280 277 275 272 268 266 264 265 265 266 267 267 269 270 269
314 311 309 307 304 304 303 301 299 297 295 292 289 288 286 285 285 288 289 289 288 287 286 287 287 287 286 283 279 276 274 272 268 264 263 263 263 265 266 267 268 269 267
318 317 315 315 313 310 309 308 307 306 303 300 297 294 292 290 289 289 290 290 290 291 291 290 288 287 285 281 278 276 273 270 265 263 261 263 264 264 264 266 265 265 263
316 318 318 317 314 312 312 312 310 309 308 307 305 301 298 296 294 292 292 291 293 293 293 293 291 289 287 281 277 274 273 271 267 265 263 265 266 264 263 262 261 261 261
314 316 317 316 314 312 312 313 312 312 312 311 308 304 301 299 299 297 296 295 295 295 294 293 292 291 287 282 277 274 273 271 268 267 264 264 265 263 261 261 259 260 261
311 312 313 313 313 312 313 313 312 313 314 314 312 308 304 302 300 298 297 296 296 295 293 291 289 289 287 282 277 275 273 273 271 267 264 262 262 263 261 261 260 260 260
308 310 311 311 311 311 312 313 313 313 313 312 312 310 307 306 302 299 298 297 295 294 293 290 289 288 287 284 280 275 273 272 270 268 264 264 263 263 263 261 261 261 261
308 309 310 310 310 310 312 312 312 313 313 312 311 309 307 306 305 302 300 300 297 295 294 292 290 289 287 284 280 275 273 273 272 270 267 267 265 262 262 263 262 260 261
309 311 311 311 309 309 310 311 311 311 312 312 312 311 308 307 306 304 302 303 301 298 296 293 290 288 287 285 281 277 275 274 272 270 268 267 264 260 261 260 259 260 259
308 310 310 310 308 307 308 309 309 310 311 310 310 310 308 306 307 307 305 303 301 299 299 296 292 288 286 284 282 277 274 273 270 267 267 265 261 259 258 258 258 258 257
308 310 310 310 309 308 307 308 308 309 310 309 308 308 307 305 305 305 305 303 300 298 298 298 296 290 286 284 281 277 273 271 269 267 268 265 262 260 258 259 259 258 257
307 308 309 309 309 308 307 306 307 307 308 308 307 306 306 305 304 303 303 302 299 298 298 297 296 291 285 281 280 278 275 271 269 267 266 264 262 260 259 259 259 258 257
305 307 308 308 307 307 306 305 305 306 307 306 305 305 305 305 304 303 302 300 298 296 296 296 294 289 285 280 279 279 276 272 269 268 267 265 262 259 257 257 258 258 257
303 305 306 306 305 306 305 305 305 306 306 306 305 304 304 303 303 302 301 299 297 295 293 292 291 288 284 280 278 276 274 272 270 269 268 266 262 259 258 257 257 258 257
303 304 305 305 304 304 304 304 304 304 305 305 305 304 304 303 302 301 300 298 296 293 291 290 288 284 282 279 277 276 275 273 271 269 267 265 262 261 259 258 258 257 256
303 304 305 304 304 303 303 303 303 303 303 303 303 303 303 302 301 301 299 297 295 292 290 288 286 283 279 278 277 276 275 273 271 268 266 265 261 259 258 257 257 256 255
302 303 304 304 303 303 302 303 303 302 302 303 302 302 302 301 300 299 298 295 293 291 289 287 285 282 280 278 278 277 275 273 271 269 267 266 263 260 258 256 255 255 255
301 302 303 303 303 302 302 302 302 301 301 302 302 301 300 300 299 298 297 294 292 290 288 286 284 281 278 277 278 278 276 273 271 269 268 266 263 260 258 256 255 254 255
300 301 301 302 301 301 302 302 301 301 300 300 300 299 299 299 299 297 295 293 291 288 286 284 282 280 278 276 276 274 273 272 269 266 266 264 262 260 258 256 255 254 253
300 300 301 301 301 300 300 301 301 300 300 299 299 299 298 298 297 296 293 291 289 287 285 284 282 280 277 276 275 273 271 270 268 267 265 263 261 260 259 257 256 254 252